Location: Austin
(30.3000°N, 97.7500°W)
Time: 05:03:48
(UTC-06:00)

ATLAS CENTAUR Rocket - Pass Details

Date: 05 February 2026
Orbit: 685 x 36552 km, 28.1° (Epoch: 14 February)

Event Time Altitude Azimuth Distance (km) Brightness Sun altitude
Exits shadow 03:53:28 48° 137° (SE) 2,167 4.2 -44.7°
Drops below altitude 10° 04:11:00 10° 112° (ESE) 9,252 8.0 -40.9°
Sets 04:31:26 0° 112° (ESE) 15,752 9.5 -36.5°
